リニア彗星

197P/LINEAR (2018)

English version
Home page
Updated on October 8, 2017

---------------------------------------------------------------------

・ プロフィール

・ 軌道要素

Epoch 2018 Feb. 11.0 TT = JDT 2458160.5
T 2018 Jan. 28.83857 TT                                 Kobayashi
q   1.0599026            (2000.0)            P               Q
n   0.20317837     Peri.  188.68352     -0.27105409     +0.87764901
a   2.8656143      Node    66.39360     -0.85520356     -0.03109990
e   0.6301307      Incl.   25.55645     -0.44176526     -0.47829385
P   4.85
From 304 observations 2003 May 23-2013 Sept. 25, mean residual 0".7.
     Nongravitational parameters A1 = +0.00, A2 = +0.0018.

・ 光度変化

        m1 = 17.5 + 5 logΔ + 10.0 log r

---------------------------------------------------------------------

軌道要素はM.P.E.C. 2015-M77に掲載されたものです。
光度グラフはComet for Windowsで作成したものです。

---------------------------------------------------------------------

Copyright(C) Seiichi Yoshida (comet@aerith.net). All rights reserved.